DLH3MP LPPR-EDDF

Flight info

Callsign DLH3MP
Flight time 1h 43m
Altitude 32000
Route TURON P600 ASDEB/N0460F360 DCT LOTEE DCT AZFIC/N0456F340 UN741 ERIGA/N0456F380 UN741 MOKOR UN873 OBATO UM163 TSU UN858 OQQAL DCT RANUX/N0449F370 DCT VALEK DCT LIPNI DCT LIMGO/N0451F350 Z111 TUTOV/N0419F230 Z111 RAMOB IMCOM1A
Aircraft A320/M-SDE3FGHIRWY/LB1

Departure

Time 2026-05-04 14:42
Airport Francisco de Sá Carneiro Airport (LPPR)

Arrival

Time 2026-05-04 16:26
Airport Frankfurt Main Airport (EDDF)
Time Latitude Longitude Altitude Speed Heading
2026-05-04 14:20 41.23590 -8.67226 242 ft 0 kts 90°
2026-05-04 14:32 41.23590 -8.67228 242 ft 2 kts 90°
2026-05-04 14:32 41.23591 -8.67262 242 ft 4 kts 96°
2026-05-04 14:32 41.23595 -8.67297 242 ft 4 kts 108°
2026-05-04 14:33 41.23607 -8.67326 242 ft 4 kts 148°
2026-05-04 14:33 41.23620 -8.67331 242 ft 1 kts 195°
2026-05-04 14:33 41.23623 -8.67330 242 ft 0 kts 195°
2026-05-04 14:36 41.23608 -8.67335 242 ft 6 kts 195°
2026-05-04 14:36 41.23565 -8.67357 240 ft 8 kts 202°
2026-05-04 14:36 41.23543 -8.67371 239 ft 0 kts 205°
2026-05-04 14:37 41.23539 -8.67373 239 ft 2 kts 205°
2026-05-04 14:37 41.23517 -8.67384 238 ft 8 kts 196°
2026-05-04 14:37 41.23447 -8.67377 237 ft 10 kts 169°
2026-05-04 14:37 41.23380 -8.67366 237 ft 9 kts 189°
2026-05-04 14:38 41.23334 -8.67426 237 ft 10 kts 250°
2026-05-04 14:38 41.23324 -8.67525 236 ft 11 kts 258°
2026-05-04 14:38 41.23309 -8.67594 237 ft 0 kts 256°
2026-05-04 14:40 41.23308 -8.67600 237 ft 4 kts 256°
2026-05-04 14:40 41.23294 -8.67681 239 ft 10 kts 258°
2026-05-04 14:40 41.23331 -8.67738 240 ft 0 kts 348°
2026-05-04 14:41 41.23334 -8.67739 240 ft 4 kts 348°
2026-05-04 14:41 41.23565 -8.67802 232 ft 72 kts 347°
2026-05-04 14:41 41.25319 -8.68267 335 ft 169 kts 347°
2026-05-04 14:42 41.27837 -8.68837 1437 ft 201 kts 345°
2026-05-04 14:42 41.29293 -8.69220 1931 ft 225 kts 345°
2026-05-04 14:42 41.30905 -8.69671 2515 ft 245 kts 345°
2026-05-04 14:43 41.32599 -8.70143 3401 ft 251 kts 345°
2026-05-04 14:43 41.34316 -8.70613 4385 ft 253 kts 345°
2026-05-04 14:43 41.36034 -8.71075 5313 ft 257 kts 345°
2026-05-04 14:43 41.37807 -8.71517 6205 ft 263 kts 352°
2026-05-04 14:44 41.39660 -8.71352 7074 ft 271 kts
2026-05-04 14:44 41.41532 -8.70946 7922 ft 275 kts
2026-05-04 14:44 41.43435 -8.70525 8765 ft 280 kts
2026-05-04 14:44 41.45370 -8.70095 9614 ft 285 kts
2026-05-04 14:45 41.47347 -8.69657 10322 ft 294 kts
2026-05-04 14:45 41.49446 -8.69193 10598 ft 318 kts
2026-05-04 14:45 41.51678 -8.68701 10823 ft 341 kts
2026-05-04 14:45 41.54085 -8.68168 11161 ft 358 kts
2026-05-04 14:46 41.56561 -8.67617 11802 ft 364 kts
2026-05-04 14:46 41.59074 -8.67057 12520 ft 368 kts
2026-05-04 14:46 41.61611 -8.66489 13253 ft 372 kts
2026-05-04 14:46 41.64173 -8.65916 13946 ft 376 kts
2026-05-04 14:47 41.66771 -8.65333 14598 ft 380 kts
2026-05-04 14:47 41.69392 -8.64745 15209 ft 384 kts
2026-05-04 14:47 41.72034 -8.64153 15810 ft 388 kts
2026-05-04 14:47 41.74708 -8.63557 16400 ft 392 kts
2026-05-04 14:48 41.77374 -8.62964 16985 ft 395 kts
2026-05-04 14:48 41.80098 -8.62359 17563 ft 399 kts
2026-05-04 14:48 41.82847 -8.61746 18121 ft 403 kts
2026-05-04 14:48 41.85626 -8.61124 18643 ft 406 kts
2026-05-04 14:49 41.88423 -8.60494 19138 ft 409 kts
2026-05-04 14:49 41.91245 -8.59857 19629 ft 412 kts
2026-05-04 14:49 41.94083 -8.59215 20113 ft 416 kts
2026-05-04 14:49 41.96948 -8.58565 20612 ft 419 kts
2026-05-04 14:50 41.99836 -8.57913 21102 ft 422 kts
2026-05-04 14:50 42.02741 -8.57263 21586 ft 425 kts
2026-05-04 14:50 42.05628 -8.56616 22031 ft 428 kts
2026-05-04 14:50 42.08577 -8.55985 22463 ft 430 kts
2026-05-04 14:51 42.11556 -8.55448 22930 ft 433 kts
2026-05-04 14:51 42.14553 -8.54983 23372 ft 435 kts
2026-05-04 14:51 42.17568 -8.54549 23765 ft 437 kts
2026-05-04 14:51 42.20611 -8.54116 24123 ft 440 kts
2026-05-04 14:52 42.23662 -8.53667 24457 ft 443 kts
2026-05-04 14:52 42.26733 -8.53193 24815 ft 445 kts
2026-05-04 14:52 42.29775 -8.52706 25172 ft 448 kts
2026-05-04 14:52 42.32879 -8.52201 25507 ft 451 kts
2026-05-04 14:53 42.36000 -8.51696 25841 ft 453 kts
2026-05-04 14:53 42.39137 -8.51192 26168 ft 456 kts
2026-05-04 14:53 42.42296 -8.50688 26502 ft 458 kts
2026-05-04 14:53 42.45467 -8.50179 26799 ft 461 kts
2026-05-04 14:54 42.48634 -8.49274 27069 ft 470 kts 12°
2026-05-04 14:54 42.51712 -8.47668 27351 ft 478 kts 22°
2026-05-04 14:54 42.54611 -8.45387 27649 ft 486 kts 31°
2026-05-04 14:54 42.57260 -8.42499 27919 ft 492 kts 38°
2026-05-04 14:55 42.59808 -8.39483 28196 ft 494 kts 38°
2026-05-04 14:55 42.62401 -8.36419 28518 ft 495 kts 38°
2026-05-04 14:55 42.64997 -8.33349 28915 ft 495 kts 38°
2026-05-04 14:55 42.67594 -8.30272 29243 ft 496 kts 38°
2026-05-04 14:56 42.70196 -8.27182 29613 ft 497 kts 38°
2026-05-04 14:56 42.72794 -8.24088 30032 ft 496 kts 38°
2026-05-04 14:56 42.75392 -8.20990 30369 ft 497 kts 38°
2026-05-04 14:56 42.77799 -8.18121 30687 ft 496 kts 38°
2026-05-04 14:57 42.80388 -8.15028 31071 ft 495 kts 38°
2026-05-04 14:57 42.82965 -8.11943 31444 ft 493 kts 39°
2026-05-04 14:57 42.85541 -8.08854 31816 ft 492 kts 38°
2026-05-04 14:57 42.88109 -8.05776 32032 ft 491 kts 38°
2026-05-04 14:58 42.93250 -7.99603 32062 ft 492 kts 39°
2026-05-04 14:58 42.98391 -7.93421 32079 ft 494 kts 39°
2026-05-04 14:59 43.00930 -7.90368 32412 ft 493 kts 39°
2026-05-04 14:59 43.03502 -7.87270 32768 ft 492 kts 39°
2026-05-04 14:59 43.08610 -7.81096 33505 ft 489 kts 39°
2026-05-04 15:00 43.11156 -7.78015 33864 ft 487 kts 39°
2026-05-04 15:00 43.13692 -7.74944 34022 ft 487 kts 39°
2026-05-04 15:00 43.16225 -7.71874 34061 ft 486 kts 39°
2026-05-04 15:01 43.23767 -7.62699 34051 ft 485 kts 39°
2026-05-04 15:01 43.28804 -7.56560 34042 ft 484 kts 39°
2026-05-04 15:02 43.33839 -7.50406 34037 ft 484 kts 39°
2026-05-04 15:02 43.38864 -7.44241 34038 ft 485 kts 39°
2026-05-04 15:03 43.44574 -7.37234 34037 ft 484 kts 40°
2026-05-04 15:03 43.64636 -7.12445 34029 ft 485 kts 40°
2026-05-04 15:04 43.84656 -6.87487 34024 ft 484 kts 41°
2026-05-04 15:04 44.04592 -6.62373 34025 ft 483 kts 41°
2026-05-04 15:05 44.22563 -6.39548 34002 ft 481 kts 42°
2026-05-04 15:05 44.27608 -6.33105 34012 ft 481 kts 42°
2026-05-04 15:06 44.47288 -6.07826 33998 ft 480 kts 43°
2026-05-04 15:07 44.76414 -5.69310 33981 ft 479 kts 45°
2026-05-04 15:07 44.95356 -5.43181 33998 ft 479 kts 45°
2026-05-04 15:08 45.14336 -5.16711 33991 ft 479 kts 46°
2026-05-04 15:08 45.33294 -4.90096 33989 ft 479 kts 46°
2026-05-04 15:09 45.52111 -4.63368 33973 ft 477 kts 46°
2026-05-04 15:09 45.70823 -4.36525 33980 ft 476 kts 47°
2026-05-04 15:10 45.98552 -3.96243 33972 ft 475 kts 47°
2026-05-04 15:11 46.26193 -3.55478 33976 ft 473 kts 47°
2026-05-04 15:11 46.44443 -3.28224 34001 ft 470 kts 47°
2026-05-04 15:12 46.60854 -2.99559 33984 ft 462 kts 63°
2026-05-04 15:12 46.73819 -2.67157 33940 ft 465 kts 63°
2026-05-04 15:13 46.86813 -2.34279 33945 ft 469 kts 62°
2026-05-04 15:13 47.00825 -2.02011 33934 ft 473 kts 51°
2026-05-04 15:13 47.11158 -1.89936 33985 ft 476 kts 39°
2026-05-04 15:14 47.21539 -1.78342 33992 ft 475 kts 39°
2026-05-04 15:14 47.40724 -1.52339 33916 ft 469 kts 55°
2026-05-04 15:15 47.56799 -1.21960 33914 ft 468 kts 56°
2026-05-04 15:15 47.72765 -0.91333 33936 ft 472 kts 56°
2026-05-04 15:16 47.85290 -0.67039 33985 ft 483 kts 55°
2026-05-04 15:16 47.87302 -0.63124 33992 ft 482 kts 55°
2026-05-04 15:17 47.93391 -0.51214 33987 ft 481 kts 56°
2026-05-04 15:17 47.99444 -0.39289 33973 ft 480 kts 56°
2026-05-04 15:18 48.03451 -0.31404 33994 ft 479 kts 56°
2026-05-04 15:19 48.08645 -0.18826 33978 ft 472 kts 68°
2026-05-04 15:19 48.12818 -0.05505 33964 ft 471 kts 68°
2026-05-04 15:20 48.15606 0.03370 33968 ft 472 kts 68°
2026-05-04 15:20 48.18368 0.12193 33961 ft 470 kts 68°
2026-05-04 15:21 48.21118 0.21075 33954 ft 470 kts 68°
2026-05-04 15:22 48.25221 0.34398 33968 ft 469 kts 68°
2026-05-04 15:22 48.29311 0.47645 33957 ft 468 kts 68°
2026-05-04 15:23 48.32039 0.56540 33957 ft 469 kts 69°
2026-05-04 15:23 48.34748 0.65436 33959 ft 469 kts 69°
2026-05-04 15:24 48.40141 0.83232 33971 ft 469 kts 69°
2026-05-04 15:25 48.42839 0.92163 33945 ft 470 kts 69°
2026-05-04 15:26 48.46878 1.05634 33942 ft 471 kts 69°
2026-05-04 15:26 48.50923 1.19140 33945 ft 471 kts 69°
2026-05-04 15:27 48.54933 1.32621 33931 ft 472 kts 69°
2026-05-04 15:28 48.58939 1.46214 33934 ft 473 kts 69°
2026-05-04 15:29 48.62946 1.59850 33941 ft 474 kts 69°
2026-05-04 15:30 48.71059 1.92319 33955 ft 473 kts 74°
2026-05-04 15:31 48.74425 2.06349 33964 ft 475 kts 73°
2026-05-04 15:32 48.79071 2.30236 33959 ft 472 kts 80°
2026-05-04 15:34 48.83256 2.54295 33975 ft 474 kts 79°
2026-05-04 15:34 48.85840 2.68764 33953 ft 474 kts 79°
2026-05-04 15:35 48.88379 2.83276 33954 ft 474 kts 79°
2026-05-04 15:36 48.90906 2.97827 33967 ft 475 kts 79°
2026-05-04 15:36 48.92571 3.07471 33940 ft 475 kts 79°
2026-05-04 15:37 48.94242 3.17196 33951 ft 475 kts 79°
2026-05-04 15:37 48.95893 3.26927 33954 ft 475 kts 80°
2026-05-04 15:38 48.97541 3.36659 33958 ft 475 kts 79°
2026-05-04 15:38 48.99189 3.46410 33961 ft 475 kts 80°
2026-05-04 15:39 49.00811 3.56095 33941 ft 476 kts 80°
2026-05-04 15:40 49.03246 3.70752 33960 ft 476 kts 80°
2026-05-04 15:40 49.04870 3.80526 33957 ft 475 kts 80°
2026-05-04 15:41 49.06474 3.90233 33954 ft 475 kts 80°
2026-05-04 15:41 49.08065 4.00007 33947 ft 475 kts 80°
2026-05-04 15:42 49.09650 4.09785 33938 ft 475 kts 81°
2026-05-04 15:42 49.11231 4.19561 33936 ft 475 kts 81°
2026-05-04 15:43 49.12797 4.29349 33938 ft 475 kts 81°
2026-05-04 15:43 49.14648 4.38979 33944 ft 480 kts 71°
2026-05-04 15:44 49.17219 4.48400 33928 ft 480 kts 71°
2026-05-04 15:44 49.19776 4.57838 33946 ft 481 kts 71°
2026-05-04 15:45 49.22307 4.67238 33972 ft 481 kts 71°
2026-05-04 15:45 49.24855 4.76705 33978 ft 481 kts 71°
2026-05-04 15:46 49.27389 4.86174 33981 ft 480 kts 72°
2026-05-04 15:46 49.29910 4.95646 33961 ft 480 kts 72°
2026-05-04 15:47 49.32406 5.05053 33968 ft 480 kts 72°
2026-05-04 15:47 49.34914 5.14535 33970 ft 480 kts 72°
2026-05-04 15:48 49.37411 5.24025 33970 ft 479 kts 72°
2026-05-04 15:48 49.41140 5.38258 33948 ft 479 kts 72°
2026-05-04 15:49 49.43598 5.47711 33961 ft 480 kts 72°
2026-05-04 15:49 49.46223 5.57164 33965 ft 483 kts 69°
2026-05-04 15:50 49.47692 5.61798 33763 ft 482 kts 67°
2026-05-04 15:50 49.49222 5.66398 33152 ft 484 kts 66°
2026-05-04 15:50 49.50777 5.71003 32641 ft 486 kts 66°
2026-05-04 15:50 49.52323 5.75637 32101 ft 487 kts 67°
2026-05-04 15:51 49.53842 5.80299 31587 ft 488 kts 68°
2026-05-04 15:51 49.55316 5.84927 31070 ft 489 kts 68°
2026-05-04 15:51 49.56793 5.89642 30576 ft 490 kts 68°
2026-05-04 15:51 49.58266 5.94381 30088 ft 492 kts 68°
2026-05-04 15:52 49.59748 5.99147 29526 ft 493 kts 68°
2026-05-04 15:52 49.61234 6.03910 28965 ft 494 kts 68°
2026-05-04 15:52 49.62732 6.08697 28404 ft 495 kts 68°
2026-05-04 15:52 49.64230 6.13483 27875 ft 496 kts 67°
2026-05-04 15:53 49.65734 6.18284 27346 ft 497 kts 67°
2026-05-04 15:53 49.67239 6.23104 26822 ft 498 kts 67°
2026-05-04 15:53 49.68725 6.27871 26320 ft 499 kts 67°
2026-05-04 15:53 49.70228 6.32705 25807 ft 500 kts 67°
2026-05-04 15:54 49.71732 6.37558 25315 ft 500 kts 66°
2026-05-04 15:54 49.73224 6.42389 24831 ft 497 kts 66°
2026-05-04 15:54 49.74706 6.47200 24356 ft 494 kts 66°
2026-05-04 15:54 49.76175 6.51976 23886 ft 490 kts 66°
2026-05-04 15:55 49.77142 6.55127 23577 ft 488 kts 66°
2026-05-04 15:55 49.78588 6.59850 23028 ft 481 kts 66°
2026-05-04 15:55 49.80008 6.64482 22488 ft 471 kts 66°
2026-05-04 15:55 49.81396 6.69001 21957 ft 461 kts 66°
2026-05-04 15:56 49.83197 6.74881 21270 ft 455 kts 66°
2026-05-04 15:56 49.84560 6.79357 20774 ft 463 kts 66°
2026-05-04 15:56 49.85471 6.82356 20421 ft 463 kts 66°
2026-05-04 15:56 49.86836 6.86863 19928 ft 462 kts 66°
2026-05-04 15:57 49.88193 6.91351 19443 ft 459 kts 66°
2026-05-04 15:57 49.89543 6.95822 18979 ft 456 kts 66°
2026-05-04 15:57 49.90882 7.00261 18500 ft 452 kts 66°
2026-05-04 15:57 49.92205 7.04650 18007 ft 449 kts 66°
2026-05-04 15:58 49.93951 7.10447 17301 ft 444 kts 66°
2026-05-04 15:58 49.94830 7.13371 16948 ft 441 kts 66°
2026-05-04 15:58 49.96121 7.17678 16431 ft 438 kts 66°
2026-05-04 15:58 49.97381 7.21890 15930 ft 434 kts 67°
2026-05-04 15:59 49.98639 7.26109 15444 ft 428 kts 67°
2026-05-04 15:59 49.99884 7.30285 14938 ft 424 kts 67°
2026-05-04 15:59 50.01118 7.34430 14452 ft 422 kts 66°
2026-05-04 15:59 50.02345 7.38560 13965 ft 419 kts 67°
2026-05-04 16:00 50.03559 7.42648 13465 ft 415 kts 67°
2026-05-04 16:00 50.04764 7.46711 12937 ft 412 kts 67°
2026-05-04 16:00 50.05958 7.50751 12413 ft 409 kts 67°
2026-05-04 16:00 50.07142 7.54768 11901 ft 406 kts 67°
2026-05-04 16:01 50.08302 7.58758 11393 ft 403 kts 70°
2026-05-04 16:01 50.09057 7.62905 11046 ft 396 kts 83°
2026-05-04 16:01 50.09217 7.67154 10973 ft 391 kts 96°
2026-05-04 16:01 50.08827 7.71322 10991 ft 388 kts 107°
2026-05-04 16:02 50.07920 7.75243 10989 ft 383 kts 119°
2026-05-04 16:02 50.06570 7.78716 10972 ft 379 kts 128°
2026-05-04 16:02 50.03565 7.85454 10983 ft 369 kts 128°
2026-05-04 16:03 50.02197 7.88700 10980 ft 350 kts 122°
2026-05-04 16:03 50.01267 7.92100 10979 ft 336 kts 110°
2026-05-04 16:03 50.00808 7.95588 10984 ft 323 kts 99°
2026-05-04 16:03 50.00794 7.99015 10980 ft 314 kts 88°
2026-05-04 16:04 50.01185 8.02345 10978 ft 314 kts 77°
2026-05-04 16:04 50.02707 8.08723 10976 ft 314 kts 72°
2026-05-04 16:04 50.03485 8.11902 10971 ft 314 kts 72°
2026-05-04 16:05 50.04262 8.15080 10968 ft 315 kts 72°
2026-05-04 16:05 50.05023 8.18221 10970 ft 315 kts 72°
2026-05-04 16:05 50.06563 8.24600 10961 ft 314 kts 72°
2026-05-04 16:06 50.07329 8.27775 10962 ft 313 kts 72°
2026-05-04 16:06 50.09617 8.37264 10867 ft 311 kts 72°
2026-05-04 16:07 50.10372 8.40406 10635 ft 309 kts 72°
2026-05-04 16:07 50.12605 8.49688 9917 ft 303 kts 72°
2026-05-04 16:08 50.13341 8.52761 9652 ft 302 kts 72°
2026-05-04 16:08 50.15516 8.61897 8858 ft 298 kts 72°
2026-05-04 16:09 50.16948 8.67935 8356 ft 295 kts 73°
2026-05-04 16:09 50.18356 8.73877 7841 ft 293 kts 72°
2026-05-04 16:10 50.19760 8.79799 7346 ft 290 kts 72°
2026-05-04 16:11 50.21833 8.88615 6619 ft 287 kts 72°
2026-05-04 16:11 50.22518 8.91544 6371 ft 287 kts 73°
2026-05-04 16:12 50.24553 9.00226 6006 ft 284 kts 72°
2026-05-04 16:12 50.26577 9.08923 6007 ft 284 kts 73°
2026-05-04 16:13 50.27921 9.14723 6007 ft 284 kts 72°
2026-05-04 16:13 50.29253 9.20542 6009 ft 285 kts 76°
2026-05-04 16:14 50.28636 9.26340 6009 ft 276 kts 130°
2026-05-04 16:14 50.25606 9.28638 6010 ft 232 kts 183°
2026-05-04 16:15 50.22340 9.24294 5944 ft 222 kts 246°
2026-05-04 16:16 50.21197 9.19877 5646 ft 218 kts 246°
2026-05-04 16:16 50.19398 9.13333 5199 ft 219 kts 244°
2026-05-04 16:17 50.18157 9.09054 5009 ft 213 kts 244°
2026-05-04 16:18 50.16334 9.02879 5014 ft 208 kts 244°
2026-05-04 16:18 50.15791 9.00786 5015 ft 208 kts 247°
2026-05-04 16:19 50.14290 8.94419 5011 ft 208 kts 248°
2026-05-04 16:19 50.13304 8.90214 5010 ft 208 kts 248°
2026-05-04 16:20 50.11865 8.84089 4699 ft 190 kts 248°
2026-05-04 16:20 50.10975 8.80317 4182 ft 182 kts 249°
2026-05-04 16:21 50.09673 8.74802 3414 ft 184 kts 251°
2026-05-04 16:22 50.08789 8.71068 2891 ft 185 kts 252°
2026-05-04 16:22 50.07482 8.65558 2129 ft 167 kts 251°
2026-05-04 16:23 50.06434 8.61150 1492 ft 132 kts 251°
2026-05-04 16:24 50.05166 8.55824 751 ft 132 kts 252°
2026-05-04 16:25 50.04528 8.53171 374 ft 130 kts 253°
2026-05-04 16:26 50.03926 8.50941 323 ft 24 kts 220°
2026-05-04 16:26 50.03790 8.50938 334 ft 8 kts 81°
2026-05-04 16:27 50.03896 8.51403 332 ft 27 kts 70°
2026-05-04 16:28 50.04112 8.52289 353 ft 30 kts 69°
2026-05-04 16:28 50.04331 8.53209 365 ft 29 kts 68°
2026-05-04 16:29 50.04456 8.54426 371 ft 33 kts 85°
2026-05-04 16:30 50.04203 8.54834 357 ft 12 kts 160°
2026-05-04 16:31 50.04150 8.54864 357 ft 1 kts 159°
2026-05-04 16:31 50.03964 8.54973 354 ft 19 kts 160°
2026-05-04 16:32 50.03909 8.55355 349 ft 13 kts 67°
2026-05-04 16:33 50.03975 8.55625 355 ft 18 kts 68°
2026-05-04 16:33 50.04036 8.55896 352 ft 0 kts 69°
2026-05-04 16:34 50.04041 8.55916 356 ft 4 kts 68°
2026-05-04 16:34 50.04082 8.55967 353 ft 10 kts 11°
2026-05-04 16:35 50.04187 8.55920 355 ft 10 kts 349°
2026-05-04 16:35 50.04392 8.55904 361 ft 12 kts 345°
2026-05-04 16:36 50.04477 8.55927 359 ft 14 kts 18°
2026-05-04 16:36 50.04600 8.56159 357 ft 14 kts 68°
2026-05-04 16:37 50.04663 8.56421 361 ft 12 kts 69°
2026-05-04 16:37 50.04695 8.56531 360 ft 11 kts 54°
2026-05-04 16:37 50.04753 8.56661 364 ft 6 kts 84°
2026-05-04 16:38 50.04738 8.56730 362 ft 1 kts 114°
2026-05-04 16:39 50.04736 8.56738 361 ft 0 kts 114°